This demonstration page uses our WeatherBlox Daily Observations layout. Learn more.

Left ArrowRight Arrow

41.86663, -103.66717

Hourly Observations for September 30, 2022

Temp ( °F °C ) Dew Point ( °F °C ) Humidity (%) Winds ( mph kmh ) Pressure ( in mb ) Visibility ( mi km ) Precip ( " mm )
12:53 am 00:53 Clear 58 14.4 47 8.3 67 67 E 7 11 29.89 1012 10 16 0.00 0.00
1:53 am 01:53 Clear 56 13.3 46 7.8 69 69 ENE 5 7 29.89 1012 10 16 0.00 0.00
2:53 am 02:53 Clear 54 12.2 46 7.8 74 74 E 5 7 29.89 1012 10 16 0.00 0.00
3:53 am 03:53 Clear 51 10.6 44 6.7 77 77 NNE 5 7 29.88 1012 10 16 0.00 0.00
4:53 am 04:53 Clear 51 10.6 45 7.2 79 79 N 8 13 29.90 1012 10 16 0.00 0.00
5:53 am 05:53 Clear 48 8.9 43 6.1 83 83 Calm 29.91 1013 10 16 0.00 0.00
6:53 am 06:53 Mostly Sunny 50 10 44 6.7 80 80 Calm 29.94 1014 10 16 0.00 0.00
7:53 am 07:53 Sunny 56 13.3 45 7.2 66 66 Calm 29.93 1013 10 16 0.00 0.00
8:53 am 08:53 Sunny 62 16.7 46 7.8 56 56 VRB 6 9 29.91 1013 10 16 0.00 0.00
9:53 am 09:53 Sunny 71 21.7 45 7.2 39 39 WNW 9 15 29.90 1013 10 16 0.00 0.00
10:53 am 10:53 Sunny 75 23.9 45 7.2 34 34 WNW 10 17 29.90 1012 10 16 0.00 0.00
11:53 am 11:53 Sunny 79 26.1 45 7.2 30 30 W 15 24 29.88 1012 10 16 0.00 0.00
12:53 pm 12:53 Sunny 79 26.1 46 7.8 31 31 W 15 24 29.87 1012 10 16 0.00 0.00
1:53 pm 13:53 Sunny 80 26.7 44 6.7 28 28 NW 10 17 29.86 1011 10 16 0.00 0.00
2:53 pm 14:53 Sunny 82 27.8 44 6.7 26 26 WNW 13 20 29.84 1011 10 16 0.00 0.00
3:53 pm 15:53 Sunny 79 26.1 44 6.7 29 29 NW 8 13 29.85 1011 10 16 0.00 0.00
4:53 pm 16:53 Cloudy 76 24.4 45 7.2 33 33 W 9 15 29.86 1011 10 16 0.00 0.00
5:53 pm 17:53 Mostly Sunny 64 17.8 49 9.4 58 58 W 16 26 29.93 1014 10 16 0.01 0.13
6:53 pm 18:53 Cloudy 63 17.2 49 9.4 60 60 WNW 15 24 29.91 1013 10 16 0.00 0.00
7:53 pm 19:53 Cloudy 62 16.7 51 10.6 67 67 W 13 20 29.92 1013 10 16 0.00 0.00
8:53 pm 20:53 Mostly Cloudy 60 15.6 53 11.7 78 78 W 12 19 29.92 1013 10 16 0.01 0.25
9:45 pm 21:45 Cloudy with Rain 59 15 53 11.7 81 81 SSW 18 30 29.95 1014 5 8 0.02 0.51
9:53 pm 21:53 Cloudy with Light Rain 58 14.4 53 11.7 84 84 SW 18 30 29.97 1015 6 10 0.03 0.76
10:53 pm 22:53 Mostly Clear with Light Rain 57 13.9 53 11.7 87 87 WNW 8 13 29.96 1015 10 16 0.05 1.27
11:53 pm 23:53 Mostly Clear with Light Rain 58 14.4 53 11.7 84 84 NNW 5 7 29.91 1013 10 16 0.04 1.02

Powered by AerisWeather